STARLINK-11707, 64328

Orbit data source: Space-Track

STARLINK-11707, 64328 is a payload satellite owned by SpaceX/Seattle (US) in LEO that was launched on Tue, 10 Jun 2025 UTC via an FALCON 9 launch vehicle from the Air Force Eastern Test Range (AFETR). Payload-class satellites include a variety of spacecraft equipped with specific instruments for various scientific and technological missions. These include communications satellites like Starlink; space stations such as the ISS; scientific satellites like the Hubble; Earth observation satellites from companies like Planet Labs, Umbra, and HawkEye 360; GPS; miniature CubeSats for education and research; and military/defense satellites.

Loading next visibility...
Identifier
64328, 2025-124M
Orbit
LEO
Last TLE update
16 hours ago
Origin
Manufacturer
SpaceX/Seattle
Mission
Operational spacecraft
Bus & Motor
STARLINK V2M, Unknown motor
Mass
730 kg wet, ~700 kg dry
Launch date (UTC)
2025-06-10 (3 weeks ago)
Launch vehicle
FALCON 9
Launch site
Air Force Eastern Test Range (AFETR)
Object type
Payload
Rocket body
Debris
Shape & HBR
Unknown
Radar Cross Section
Large (>1 m²)

Expand to show TLE details & history

TLE from 16 hours ago
0 STARLINK-11707
1 64328U 25124M   25181.91668981 -.00991861  00000-0 -52247-2 0  9990
2 64328  43.0035 107.0758 0001737 273.8436 110.1848 15.82228021  4355
Epoch: 2025-06-30T22:00Z
TLE epoch observation values (Epoch: 2025-06-30T22:00:01.999Z)
Latitude
16.17746°
Longitude
-124.135°
Altitude
323.639 km
Speed
7.717 km/s
True Right ascension
08h 20m 22s
True Declination
16° 04' 47"
Sunlit
Object was in daylight at epoch
Visualization orbit readout
Latitude
-17.01921°
Longitude
52.83221°
Altitude
331.276 km
Speed
7.711 km/s
Apparent Right ascension
17h 26m 38s
Apparent Declination
-38° 51' 25"
Sunlit
Object is in full shadow
Visualization observer readout
Local Sidereal Time
01:34:13
Azimuth
251.815° W
Elevation
-45.901°
Doppler factor
1
Orbital elements
Apogee altitude
327.296 km
Perigee altitude
324.967 km
Semi-major axis
6,704.269 km
Eccentricity
0.00017
Inclination
43.0035°
RAAN
107.0758°
Arg. of periapsis
273.8436°
True anomaly
Unknown
Mean anomaly
110.1848°
Eccentric anomaly
Unknown
Mean motion
3.95381 °/min
Orbital period
91.05 mins
BSTAR
-0.0052247
Loading maneuver chart data...
Loading SW <> Apogee altitude chart data...
Loading historical data...
Loading historical data...
Loading historical data...
Loading historical data...
Loading historical data...
Loading historical data...
Loading historical data...

STARLINK-11707 Visibility forecast

Observer location: undefined°, undefined°

Span
Click to sort rows by Start time (UTC) header in descending order
Start Az.
Max El. time (UTC)
Max El. Az.
Max El.
End time (UTC)
End Az.
5 mins2025-07-01 22:22:12.332Z221.217° SW2025-07-01 22:24:12.332Z179.635° S28.304°2025-07-01 22:27:12.332Z84.568° E
4 mins2025-07-02 03:10:12.332Z273.007° WNW2025-07-02 03:11:12.332Z237.654° WSW37.941°2025-07-02 03:14:12.332Z123.961° SE
|